Regional Weather Roundup
Issued by NWS

Home | Current Version | Previous Version | Text Only | Print | Product List | Glossary On
Versions: 1 2 3 4 5 6 7 8 9 10 11 12 13 14 15 16 17 18 19 20 21 22 23 24 25 26 27 28 29 30 31 32 33 34 35 36 37 38 39 40 41 42 43 44 45 46 47 48 49 50
000
ASHW40 PHFO 010543
RWRHI

WEATHER ROUNDUP FOR HAWAII
NATIONAL WEATHER SERVICE HONOLULU HI
700 PM HST SAT JAN 31 2015

THIS IS AN AUTOMATED REPORT THAT HAS NOT BEEN QUALITY CONTROLLED.

NOTE..."FAIR" INDICATES FEW OR NO CLOUDS BELOW 12,000 FEET WITH NO
SIGNIFICANT WEATHER AND/OR OBSTRUCTIONS TO VISIBILITY.

* - THESE SITES REPORT LIMITED FIELDS

HIZ001>004-010600-
KAUAI-NIIHAU-

CITY           SKY/WX    TMP DP  RH WIND       PRES   REMARKS
LIHUE APT      MOCLDY    71  59  65 N7        30.02R
PORT ALLEN*      N/A     72 N/A N/A SE6         N/A
POIPU*           N/A     70 N/A N/A N2          N/A
PRINCEVILLE*     N/A     70 N/A N/A MISG        N/A
KOKOLE POINT*  NOT AVBL
MOLOAA DAIRY*  NOT AVBL
WAIMEA HTS*      N/A     70  55  60 E6G12       N/A
PUU OPAE*        N/A     63  55  77 CALM        N/A
PUU LUA*       NOT AVBL
MAKAHA RIDGE*  NOT AVBL
$$

HIZ005>011-010600-
OAHU-

CITY           SKY/WX    TMP DP  RH WIND       PRES   REMARKS
HONOLULU       PTCLDY    73  64  73 N7        29.98S
KALAELOA       CLEAR     72  62  71 VRB5      30.00R
KANEOHE MCB    CLOUDY    72  65  78 NW3       29.98S
WHEELER FIELD  FAIR      68  62  83 NW6       30.02R
BELLOWS*         N/A    N/A N/A N/A W3          N/A
KAHUKU*          N/A    N/A N/A N/A SE1         N/A
WHEELER*       NOT AVBL
WAIANAE HARBOR NOT AVBL
DILLINGHAM*      N/A     72  64  78 MISG        N/A
KAHUKU TRN*      N/A     70  64  83 E2          N/A
KAWAILOA*        N/A     66  63  88 NE6         N/A
KII*             N/A     72  63  73 NE3         N/A
MAKUA RANGE*     N/A     72  63  73 E10G16      N/A
OAHU FOREST NW   N/A    N/A N/A N/A CALM        N/A
SCHOFIELD BRK*   N/A     66  64  94 MISG        N/A
SCHOFIELD S*   NOT AVBL
WAIANAE VLY*     N/A     66  63  88 N5          N/A
KUAOKALA*        N/A     66  59  77 CALM        N/A
HONOULIUULI*   NOT AVBL
MOKUOLOE IS*     N/A    N/A N/A N/A MISG        N/A
PALEHUA*         N/A     73  63  68 CALM        N/A
WAIAWA PHB*    NOT AVBL
$$

HIZ012>013-010600-
MOLOKAI-

CITY           SKY/WX    TMP DP  RH WIND       PRES   REMARKS
MOLOKAI AIRPT  PTCLDY    70  66  88 N6        30.02R
KALAUPAPA      NOT AVBL
MAKAPULAPAI*     N/A     70  68  94 E3G12       N/A
MOLOKAI 1*       N/A     61  61 100 SE2G10      N/A
PUU ALII*        N/A     59  59  99 CALM        N/A
$$

HIZ016-010600-
KAHOOLAWE-

CITY           SKY/WX    TMP DP  RH WIND       PRES   REMARKS
KAHOOLAWE*       N/A     68 N/A N/A N8          N/A
HAKIOAWA*        N/A     69  68  95 MISG      30.43R
HONOKANAIA*      N/A     78  68  72 NW3G10    30.01R
KANELOA*         N/A     75  68  78 MISG      29.21
KEALIALALO*    NOT AVBL
LUA MAKIKA*    NOT AVBL
$$

HIZ014>015-010600-
LANAI-

CITY           SKY/WX    TMP DP  RH WIND       PRES   REMARKS
LANAI CITY     FAIR      69  65  87 CALM      30.05R
LANAI 1*         N/A     68  68 100 E10         N/A
$$

HIZ017>028-010600-
MAUI-

CITY           SKY/WX    TMP DP  RH WIND       PRES   REMARKS
KAHULUI        MOCLDY    75  69  81 N7        30.00R
KAPALUA-W MAUI NOT AVBL
HANA AIRPORT   CLOUDY    72  70  94 CALM      30.03R
HANA*            N/A     73 N/A N/A S3          N/A
HALEAKALA SUMM   N/A     43   3  19 SW17        N/A
MAALAEA BAY*   NOT AVBL
HALEAKALA*     NOT AVBL
KAUPO GAP*       N/A     57  54  88 N1          N/A
KULA 1*          N/A     51  42  72 S6G12       N/A
$$

HIZ023>026-010600-
BIG ISLAND OF HAWAII COAST AND LOWER SLOPES-

CITY           SKY/WX    TMP DP  RH WIND       PRES   REMARKS
KAILUA KONA    PTCLDY    78  68  71 N6        29.97R
HILO           CLOUDY    76  69  79 CALM      29.98R
HONOKAA*       NOT AVBL
KAWAIHAE MWT*    N/A     79 N/A N/A SW2         N/A
KAWAIHAE*        N/A     79 N/A N/A SE2         N/A
SOUTH POINT*     N/A     72 N/A N/A E6          N/A
UPOLU AIRPORT*   N/A    N/A N/A N/A E7          N/A
KAMUELA*       NOT AVBL
HAKALAU*         N/A     54  53  98 CALM        N/A
KALOKO-HONOKO*   N/A     77  66  69 NW5       29.97R
PALI 2*          N/A     64  63  94 NE1G9       N/A
KEALAKOMO*       N/A     75  70  83 E3          N/A
KAUPULEHU*       N/A     70  63  78 SE3         N/A
KAPAPALA*        N/A     67  65  95 CALM        N/A
LOWER KAHUKU*    N/A    N/A N/A N/A E1          N/A
PUHE CS*         N/A     77  66  69 S1          N/A
PUHO CS*         N/A     76  66  71 NW3G10      N/A
PTA KEAMUKU*     N/A     59  57  94 CALM        N/A
WAIKOLOA*        N/A     68  61  77 E5          N/A
$$

HIZ027>028-010600-
BIG ISLAND OF HAWAII INTERIOR AND SUMMMITS-

CITY           SKY/WX    TMP DP  RH WIND       PRES   REMARKS
BRADSHAW FIELD CLEAR     52  49  89 N1        30.32R
MK VISITOR CEN NOT AVBL
MAUNA KEA*       N/A     32 -11  15 NW35        N/A  WCI  17
MAUNA LOA*       N/A     45  -9  10 MISG        N/A
MAUNA LOA 1*   NOT AVBL
PTA KIPUKA*      N/A     57  54  88 NE2G10      N/A
PTA RANGE 17*    N/A     57  54  88 NW3G12      N/A
PTA WEST*        N/A     59  57  94 N2G10       N/A
NENE CABIN*      N/A     52  46  82 NE2         N/A
AHUMOA*          N/A     46  46 100 E3G9        N/A
PTA PORTABLE*  NOT AVBL
PUU MALI*      NOT AVBL
$$

HIC003-010600-
NORTHWEST ISLANDS-

CITY           SKY/WX    TMP DP  RH WIND       PRES   REMARKS
MIDWAY ISLAND  PTCLDY    63  50  63 SE8       29.98F
MIDWAY NOS*    NOT AVBL
FRENCH FRIGATE NOT AVBL
$$

PHZ110>124-180-010600-
BUOY REPORTS

STATION/POSITION TIME  TEMP    WIND        PRES    WAVE   SWELL
                       AIR SEA DIR/SP/G            HT/PER HT/DIR
                 (UTC) (F)     (DEG/KT/KT) (MB)    (FT/S) (FT/D)
BUOY 51001       NOT AVBL
BUOY 51101       0500   68 72  310/  8/ 12 1016.4R  11/13
BUOY 51100       0500   74 77   20/  2/  4 1016.0R
BUOY 51003       0500   76 78   60/ 14/ 16 1014.5R   9/14   8
BUOY 51004       0409   77 78   90/ 14/ 17 1014.6R   8/ 8   7/120
BARBERS PT BUOY  NOT AVBL
WAIMEA BAY BUOY  0500      77                N/A     9/13   8/320
KAILUA BAY BUOY  0500      77                N/A     7/14   5/350
LANAI BUOY       0500      77                N/A     4/13   3/270
BARBERS PT 2     0500      77                N/A     6/14   5/310
PAUWELA MAUI     0500      76                N/A    10/13   8/320
HILO             0500      77                N/A     7/13   5/340
KANEOHE BAY BUOY 0500      76                N/A     7/14   5/350
HANALEI KAUAI    NOT AVBL
KAHULUI HARBOR   0500   75 77   30/  6/  8 1015.5R
HONOLULU HARBOR  0500   73 76   60/  6/  9 1015.4R
KILO NALU        NOT AVBL
HILO HARBOR      0500   76 77  160/  4/  5 1015.0R
MOKUOLOE         0500      76              1016.0R
NAWILIWILI       0500      76                N/A
WHOTS BUOY       NOT AVBL
BUOY 51028       NOT AVBL
$$

......................KEY........................................
  SKY/WX - SKY CONDITIONS/PRESENT WEATHER
  TMP    - TEMPERATURE IN FAHRENHEIT
  DWPT   - DEWPOINT IN FAHRENHEIT
  RH     - RELATIVE HUMIDITY IN PERCENT
  WIND   - DIRECTION AND SPEED /MPH FOR ISLANDS...KTS FOR BUOYS/
  PRES   - MEAN SEA LEVEL PRESSURE IN INCHES OF HG
  VSB    - VISIBILITY IN MILES
  HX     - HEAT INDEX
  WCI    - WIND CHILL INDEX
  VRB    - VARIABLE WIND DIRECTION
  N/A    - NOT AVAILABLE


USA.gov is the U.S. government's official web portal to all federal, state and local government web resources and services.